Change the Weather History Date:

Thursday, October 10, 2013

  Actual Average (KHSV) Record (KHSV)
Temperature  
Mean Temperature 66 °F 65 °F  
Max Temperature 78 °F 77 °F 92 °F (1938)
Min Temperature 53 °F 53 °F 31 °F (2000)
Degree Days  
Heating Degree Days 0 3  
Month to date heating degree days 24  
Since 1 July heating degree days 37  
Cooling Degree Days 0 3  
Month to date cooling degree days 36  
Year to date cooling degree days 1906  
Growing Degree Days 16 (Base 50)    
Moisture  
Dew Point 55 °F    
Average Humidity 74    
Maximum Humidity 100    
Minimum Humidity 32    
Precipitation  
Precipitation 0.00 in 0.10 in 4.25 in (1905)
Month to date precipitation 1.10  
Year to date precipitation 41.14  
Snow  
Snow 0.00 in - - ()
Month to date snowfall  
Since 1 July snowfall  
Since 1 September snowfall  
Snow Depth -    
Sea Level Pressure  
Sea Level Pressure 30.11 in    
Wind  
Wind Speed 1 mph (North)    
Max Wind Speed 8 mph    
Max Gust Speed -    
Visibility 10 miles    
Events      
T = Trace of Precipitation, MM = Missing Value Source: NWS Daily Summary

Daily Weather History Graph

Daily Weather History Graph

Search for Another Location

Airport or City:

Trip Planner

Search our weather history database for the weather conditions in past years. The results will help you decide how hot, cold, wet, or windy it might be!

Date:

Astronomy

Oct. 10, 2013 Rise Set
Actual Time 6:48 AM CDT 6:17 PM CDT
Civil Twilight 6:22 AM CDT 6:42 PM CDT
Nautical Twilight 5:53 AM CDT 7:12 PM CDT
Astronomical Twilight 5:24 AM CDT 7:41 PM CDT
Moon 12:30 PM CDT (10/10) 11:03 PM CDT (10/10)
Length of Visible Light 12h 20m
Length of Day
11h 29m
Waxing Crescent, 36% of the Moon is Illuminated
Oct 10
Waxing Crescent
Oct 11
First Quarter
Oct 18
Full
Oct 26
Last Quarter
Nov 3
New

Hourly Weather History & Observations

Time (CDT) Temp. Dew Point Humidity Pressure Visibility Wind Dir Wind Speed Gust Speed Precip Events Conditions
12:15 AM 60.8 °F 55.4 °F 82% 30.13 in 10.0 mi Calm Calm - N/A   Mostly Cloudy
12:35 AM 59.0 °F 55.4 °F 88% 30.12 in 10.0 mi Calm Calm - N/A   Scattered Clouds
12:55 AM 59.0 °F 55.4 °F 88% 30.12 in 10.0 mi Calm Calm - N/A   Scattered Clouds
1:15 AM 59.0 °F 55.4 °F 88% 30.13 in 10.0 mi Calm Calm - N/A   Clear
1:35 AM 57.2 °F 55.4 °F 94% 30.13 in 10.0 mi Calm Calm - N/A   Clear
1:55 AM 57.2 °F 55.4 °F 94% 30.13 in 10.0 mi Calm Calm - N/A   Scattered Clouds
2:15 AM 57.2 °F 55.4 °F 94% 30.13 in 10.0 mi Calm Calm - N/A   Mostly Cloudy
2:35 AM 55.4 °F 53.6 °F 94% 30.13 in 10.0 mi Calm Calm - N/A   Mostly Cloudy
2:55 AM 55.4 °F 55.4 °F 100% 30.12 in 10.0 mi Calm Calm - N/A   Scattered Clouds
3:15 AM 55.4 °F 55.4 °F 100% 30.12 in 10.0 mi Calm Calm - N/A   Clear
3:35 AM 55.4 °F 53.6 °F 94% 30.12 in 10.0 mi Calm Calm - N/A   Clear
3:55 AM 55.4 °F 53.6 °F 94% 30.13 in 10.0 mi Calm Calm - N/A   Clear
4:15 AM 53.6 °F 53.6 °F 100% 30.13 in 10.0 mi Calm Calm - N/A   Mostly Cloudy
4:35 AM 55.4 °F 53.6 °F 94% 30.13 in 10.0 mi Calm Calm - N/A   Mostly Cloudy
4:55 AM 55.4 °F 55.4 °F 100% 30.13 in 10.0 mi Calm Calm - N/A   Overcast
5:15 AM 57.2 °F 55.4 °F 94% 30.13 in 10.0 mi Calm Calm - N/A   Overcast
5:35 AM 57.2 °F 55.4 °F 94% 30.14 in 10.0 mi Calm Calm - N/A   Overcast
5:55 AM 57.2 °F 55.4 °F 94% 30.14 in 10.0 mi Calm Calm - N/A   Overcast
6:15 AM 57.2 °F 55.4 °F 94% 30.14 in 10.0 mi Calm Calm - N/A   Overcast
6:35 AM 57.2 °F 55.4 °F 94% 30.15 in 10.0 mi Calm Calm - N/A   Overcast
6:55 AM 57.2 °F 55.4 °F 94% 30.15 in 10.0 mi Calm Calm - N/A   Overcast
7:15 AM 59.0 °F 57.2 °F 94% 30.15 in 10.0 mi Calm Calm - N/A   Overcast
7:35 AM 59.0 °F 57.2 °F 94% 30.16 in 10.0 mi Calm Calm - N/A   Mostly Cloudy
7:55 AM 59.0 °F 59.0 °F 100% 30.16 in 10.0 mi Calm Calm - N/A   Mostly Cloudy
8:15 AM 60.8 °F 57.2 °F 88% 30.16 in 10.0 mi Calm Calm - N/A   Mostly Cloudy
8:35 AM 60.8 °F 55.4 °F 82% 30.17 in 10.0 mi Calm Calm - N/A   Scattered Clouds
8:55 AM 62.6 °F 55.4 °F 77% 30.17 in 10.0 mi Calm Calm - N/A   Scattered Clouds
9:15 AM 62.6 °F 55.4 °F 77% 30.17 in 10.0 mi Calm Calm - N/A   Scattered Clouds
9:35 AM 64.4 °F 57.2 °F 77% 30.16 in 10.0 mi Calm Calm - N/A   Scattered Clouds
9:55 AM 66.2 °F 57.2 °F 73% 30.16 in 10.0 mi Calm Calm - N/A   Clear
10:15 AM 69.8 °F 53.6 °F 56% 30.17 in 10.0 mi Calm Calm - N/A   Scattered Clouds
10:35 AM 69.8 °F 51.8 °F 53% 30.16 in 10.0 mi Calm Calm - N/A   Scattered Clouds
10:55 AM 71.6 °F 50.0 °F 46% 30.16 in 10.0 mi Calm Calm - N/A   Clear
11:15 AM 73.4 °F 51.8 °F 47% 30.16 in 10.0 mi Calm Calm - N/A   Scattered Clouds
11:35 AM 73.4 °F 51.8 °F 47% 30.15 in 10.0 mi Calm Calm - N/A   Scattered Clouds
11:55 AM 73.4 °F 51.8 °F 47% 30.15 in 10.0 mi Calm Calm - N/A   Clear
12:15 PM 75.2 °F 51.8 °F 44% 30.14 in 10.0 mi North 4.6 mph - N/A   Scattered Clouds
12:35 PM 75.2 °F 51.8 °F 44% 30.13 in 10.0 mi Calm Calm - N/A   Scattered Clouds
12:55 PM 73.4 °F 51.8 °F 47% 30.12 in 10.0 mi Calm Calm - N/A   Scattered Clouds
1:15 PM 77.0 °F 51.8 °F 41% 30.11 in 10.0 mi NW 4.6 mph - N/A   Scattered Clouds
1:35 PM 75.2 °F 51.8 °F 44% 30.10 in 10.0 mi NNE 3.5 mph - N/A   Scattered Clouds
1:55 PM 75.2 °F 51.8 °F 44% 30.10 in 10.0 mi North 4.6 mph - N/A   Scattered Clouds
2:15 PM 77.0 °F 51.8 °F 41% 30.09 in 10.0 mi Calm Calm - N/A   Clear
2:35 PM 78.8 °F 51.8 °F 39% 30.08 in 10.0 mi North 6.9 mph - N/A   Scattered Clouds
2:55 PM 77.0 °F 51.8 °F 41% 30.08 in 10.0 mi North 4.6 mph - N/A   Scattered Clouds
3:15 PM 78.8 °F 46.4 °F 32% 30.08 in 10.0 mi WNW 3.5 mph - N/A   Clear
3:35 PM 78.8 °F 48.2 °F 34% 30.07 in 10.0 mi Calm Calm - N/A   Clear
3:55 PM 78.8 °F 50.0 °F 36% 30.07 in 10.0 mi North 8.1 mph - N/A   Scattered Clouds
4:15 PM 78.8 °F 51.8 °F 39% 30.06 in 10.0 mi North 6.9 mph - N/A   Scattered Clouds
4:35 PM 78.8 °F 50.0 °F 36% 30.06 in 10.0 mi NNW 6.9 mph - N/A   Scattered Clouds
4:55 PM 78.8 °F 50.0 °F 36% 30.05 in 10.0 mi North 6.9 mph - N/A   Scattered Clouds
5:15 PM 77.0 °F 50.0 °F 39% 30.05 in 10.0 mi North 4.6 mph - N/A   Scattered Clouds
5:35 PM 75.2 °F 51.8 °F 44% 30.05 in 10.0 mi Calm Calm - N/A   Clear
5:55 PM 71.6 °F 55.4 °F 57% 30.05 in 10.0 mi Calm Calm - N/A   Clear
6:15 PM 69.8 °F 55.4 °F 60% 30.05 in 10.0 mi Calm Calm - N/A   Clear
6:35 PM 68.0 °F 59.0 °F 73% 30.05 in 10.0 mi Calm Calm - N/A   Clear
6:55 PM 64.4 °F 59.0 °F 83% 30.05 in 10.0 mi Calm Calm - N/A   Clear
7:15 PM 64.4 °F 59.0 °F 83% 30.05 in 10.0 mi Calm Calm - N/A   Clear
7:35 PM 64.4 °F 59.0 °F 83% 30.05 in 10.0 mi Calm Calm - N/A   Clear
7:55 PM 62.6 °F 55.4 °F 77% 30.05 in 10.0 mi Calm Calm - N/A   Clear
8:15 PM 60.8 °F 57.2 °F 88% 30.05 in 10.0 mi Calm Calm - N/A   Clear
8:35 PM 60.8 °F 59.0 °F 94% 30.05 in 10.0 mi Calm Calm - N/A   Clear
8:55 PM 60.8 °F 59.0 °F 94% 30.05 in 10.0 mi Calm Calm - N/A   Clear
9:15 PM 59.0 °F 59.0 °F 100% 30.05 in 10.0 mi Calm Calm - N/A   Clear
9:35 PM 59.0 °F 57.2 °F 94% 30.06 in 10.0 mi Calm Calm - N/A   Clear
9:55 PM 59.0 °F 59.0 °F 100% 30.06 in 10.0 mi Calm Calm - N/A   Clear
10:15 PM 59.0 °F 57.2 °F 94% 30.06 in 10.0 mi Calm Calm - N/A   Clear
10:35 PM 59.0 °F 57.2 °F 94% 30.06 in 10.0 mi Calm Calm - N/A   Clear
10:55 PM 57.2 °F 55.4 °F 94% 30.06 in 10.0 mi Calm Calm - N/A   Clear
11:15 PM 59.0 °F 57.2 °F 94% 30.05 in 10.0 mi Calm Calm - N/A   Clear
11:35 PM 59.0 °F 57.2 °F 94% 30.05 in 10.0 mi Calm Calm - N/A   Clear
11:55 PM 57.2 °F 55.4 °F 94% 30.05 in 10.0 mi Calm Calm - N/A   Clear